Le nostre stazioni meteo in Italia

Pubblicità
Il mio iltempo24.it
Bergamo/Orio al Serio, Italia (16076): Temperatura & dewpoint: 24.05.2020 23:00:00 - 30.05.2020 23:00:00 (CEST)Bergamo/Orio al Serio, Italia (16076): velocità del vento: 24.05.2020 23:00:00 - 30.05.2020 23:00:00 (CEST)Bergamo/Orio al Serio, Italia (16076): direzione del vento: 24.05.2020 23:00:00 - 30.05.2020 23:00:00 (CEST)Bergamo/Orio al Serio, Italia (16076): reduced air pressure: 24.05.2020 23:00:00 - 30.05.2020 23:00:00 (CEST)Bergamo/Orio al Serio, Italia (16076): visibility: 24.05.2020 23:00:00 - 30.05.2020 23:00:00 (CEST)Bergamo/Orio al Serio, Italia (16076): precipitazioni: 24.05.2020 23:00:00 - 30.05.2020 23:00:00 (CEST)
Data & Tempo tt [°C] td [°C] ff [km/h] ff [kn] dd ppp [hPa] vv [km] rr [mm]
30.05.2020 23:00:00 - - - - - - - -
30.05.2020 22:00:00 17,0 11,0 8 4 ESE - 10 -
30.05.2020 21:00:00 18,0 11,0 11 6 SE - 10 -
30.05.2020 20:00:00 19,4 10,0 8 4 ESE 1014,9 10 -
30.05.2020 19:00:00 20,0 9,0 9 5 E - 10 -
30.05.2020 18:00:00 21,0 8,0 4 2 - - 10 -
30.05.2020 17:00:00 20,7 8,9 4 2 - 1015,1 10 0,0
30.05.2020 16:00:00 21,0 8,0 4 2 - - 10 -
30.05.2020 15:00:00 21,0 8,0 5 3 - - 10 -
30.05.2020 14:00:00 20,3 8,4 5 3 - 1016,5 10 -
30.05.2020 13:00:00 20,0 9,0 8 4 - - 10 -
30.05.2020 12:00:00 20,0 9,0 11 6 SE - 10 -
30.05.2020 11:00:00 19,1 9,7 8 4 SSE 1018,0 10 0,0
30.05.2020 10:00:00 17,0 11,0 8 4 ESE - 10 -
30.05.2020 09:00:00 15,0 11,0 0 0 N - 10 -
30.05.2020 08:00:00 14,7 10,2 4 2 - 1018,4 10 -
30.05.2020 07:00:00 15,0 10,0 9 5 NE - 10 -
30.05.2020 06:00:00 15,0 10,0 8 4 N - 10 -
30.05.2020 05:00:00 15,0 9,7 8 4 N 1018,9 10 0,0
30.05.2020 04:00:00 15,0 10,0 5 3 N - 10 -
30.05.2020 03:00:00 15,0 9,0 9 5 N - 10 -
30.05.2020 02:00:00 15,6 9,2 8 4 N 1019,9 10 -
30.05.2020 01:00:00 15,0 10,0 9 5 N - 10 -
30.05.2020 00:00:00 17,0 9,0 4 2 - - 10 -
29.05.2020 23:00:00 16,6 8,6 5 3 ENE 1020,2 10 0,0
29.05.2020 22:00:00 18,0 7,0 8 4 S - 10 -
29.05.2020 21:00:00 19,0 6,0 8 4 S - 10 -
29.05.2020 20:00:00 19,4 6,4 5 3 SO 1019,2 10 -
29.05.2020 19:00:00 20,0 7,0 9 5 S - 10 -
29.05.2020 18:00:00 20,0 7,0 8 4 - - 10 -
29.05.2020 17:00:00 20,2 7,0 9 5 S 1019,9 10 0,0
29.05.2020 16:00:00 20,0 7,0 15 8 S - 10 -
29.05.2020 15:00:00 20,0 8,0 11 6 S - 10 -
29.05.2020 14:00:00 19,5 8,1 15 8 SE 1021,8 10 -
29.05.2020 13:00:00 19,0 8,0 8 4 S - 10 -
29.05.2020 12:00:00 18,0 7,0 5 3 SSE - 10 -
29.05.2020 11:00:00 17,2 7,7 5 3 ENE 1023,0 10 0,0
29.05.2020 10:00:00 15,0 11,0 8 4 ENE - 10 -
29.05.2020 09:00:00 14,0 11,0 9 5 E - 10 -
29.05.2020 08:00:00 13,4 11,5 15 8 ESE 1022,9 8 -
29.05.2020 07:00:00 14,0 12,0 16 9 E - 10 -
29.05.2020 06:00:00 13,0 12,0 8 4 ESE - 10 -
29.05.2020 05:00:00 14,7 11,0 9 5 SE 1022,0 10 0,0
29.05.2020 04:00:00 15,0 11,0 21 11 SE - 10 -
29.05.2020 03:00:00 16,0 11,0 15 8 SE - 10 -
29.05.2020 02:00:00 16,3 10,3 21 11 ESE 1020,8 10 -
29.05.2020 01:00:00 15,0 10,0 4 2 - - 10 -
29.05.2020 00:00:00 17,0 11,0 5 3 N - 10 -
28.05.2020 23:00:00 17,6 10,7 9 5 N 1019,7 10 0,0
28.05.2020 22:00:00 19,0 10,0 8 4 N - 10 -
28.05.2020 21:00:00 21,0 10,0 5 3 SE - 10 -
28.05.2020 20:00:00 22,4 8,9 9 5 SE 1019,6 10 -
28.05.2020 19:00:00 24,0 8,0 8 4 SSO - 10 -
28.05.2020 18:00:00 25,0 8,0 8 4 SSE - 10 -
28.05.2020 17:00:00 25,0 8,8 5 3 - 1020,7 10 0,0
28.05.2020 16:00:00 25,0 9,0 8 4 - - 10 -
28.05.2020 15:00:00 24,0 9,0 5 3 S - - -
28.05.2020 14:00:00 23,5 8,9 9 5 - 1022,7 10 -
28.05.2020 13:00:00 22,0 8,0 8 4 OSO - 10 -
28.05.2020 12:00:00 22,0 8,0 9 5 S - 10 -
28.05.2020 11:00:00 21,1 7,7 9 5 SE 1024,9 10 0,0
28.05.2020 10:00:00 21,0 8,0 5 3 SE - 10 -
28.05.2020 09:00:00 19,0 9,0 4 2 - - 10 -
28.05.2020 08:00:00 16,8 9,6 8 4 NNE 1025,9 10 -
28.05.2020 07:00:00 13,0 9,0 11 6 N - 10 -
28.05.2020 06:00:00 13,0 8,0 11 6 N - 10 -
28.05.2020 05:00:00 13,0 8,0 9 5 N - 10 -
28.05.2020 04:00:00 13,0 9,0 8 4 N - 10 -
28.05.2020 03:00:00 13,0 9,0 8 4 N - 10 -
28.05.2020 02:00:00 13,6 9,2 9 5 N 1027,6 10 -
28.05.2020 01:00:00 15,0 10,0 8 4 N - 10 -
28.05.2020 00:00:00 16,0 10,0 8 4 N - 10 -
27.05.2020 23:00:00 17,2 9,3 4 2 - 1027,7 10 0,0
27.05.2020 22:00:00 17,0 8,0 2 1 - - 10 -
27.05.2020 21:00:00 22,0 6,0 8 4 SSO - 10 -
27.05.2020 20:00:00 22,3 6,9 11 6 SSO 1026,9 10 -
27.05.2020 19:00:00 23,0 7,0 9 5 SSE - 10 -
27.05.2020 18:00:00 23,0 8,0 11 6 S - 10 -
27.05.2020 17:00:00 23,2 6,9 13 7 SSO 1027,6 10 0,0
27.05.2020 16:00:00 23,0 7,0 11 6 SSO - 10 -
27.05.2020 15:00:00 23,0 8,0 13 7 SO - 10 -
27.05.2020 14:00:00 22,0 7,2 9 5 SSO 1029,1 10 -
27.05.2020 13:00:00 21,0 7,0 13 7 SO - 10 -
27.05.2020 12:00:00 21,0 7,0 11 6 S - 10 -
27.05.2020 11:00:00 20,4 6,9 9 5 SSE 1030,7 10 0,0
27.05.2020 10:00:00 19,0 8,0 9 5 SSE - 10 -
27.05.2020 09:00:00 18,0 8,0 5 3 NE - 10 -
27.05.2020 08:00:00 15,6 10,5 8 4 N 1030,7 10 -
27.05.2020 07:00:00 15,0 10,0 8 4 N - 10 -
27.05.2020 06:00:00 14,0 9,0 5 3 N - 10 -
27.05.2020 05:00:00 13,5 9,6 8 4 N 1029,9 10 0,0
27.05.2020 04:00:00 14,0 9,0 9 5 N - 10 -
27.05.2020 03:00:00 14,0 9,0 9 5 N - 10 -
27.05.2020 02:00:00 13,6 9,1 9 5 N 1029,7 10 -
27.05.2020 01:00:00 16,0 8,0 5 3 ENE - 10 -
27.05.2020 00:00:00 17,0 8,0 11 6 E - 10 -
26.05.2020 23:00:00 18,6 8,7 16 9 ESE 1028,5 10 0,0
26.05.2020 22:00:00 18,0 9,0 9 5 E - 10 -
26.05.2020 21:00:00 20,0 9,0 9 5 SE - 10 -
26.05.2020 20:00:00 21,8 8,1 4 2 - 1025,7 10 -
26.05.2020 19:00:00 23,0 8,0 9 5 ESE - 10 -
26.05.2020 18:00:00 23,0 9,0 8 4 S - 10 -
26.05.2020 17:00:00 22,8 7,9 8 4 - 1025,6 10 0,0
26.05.2020 16:00:00 22,0 9,0 11 6 - - 10 -
26.05.2020 15:00:00 23,0 9,0 8 4 ESE - 10 -
26.05.2020 14:00:00 21,7 9,2 8 4 S 1027,1 10 -
26.05.2020 13:00:00 21,0 8,0 9 5 SSE - 10 -
26.05.2020 12:00:00 21,0 9,0 8 4 S - 10 -
26.05.2020 11:00:00 20,2 8,0 13 7 SSE 1028,1 10 0,0
26.05.2020 10:00:00 19,0 9,0 15 8 ESE - 10 -
26.05.2020 09:00:00 19,0 11,0 15 8 SE - 10 -
26.05.2020 08:00:00 16,9 8,3 5 3 N 1027,9 10 -
26.05.2020 07:00:00 13,0 8,0 9 5 N - 10 -
26.05.2020 06:00:00 13,0 7,0 5 3 NNE - 10 -
26.05.2020 05:00:00 12,1 6,5 2 1 - 1026,4 10 0,0
26.05.2020 04:00:00 15,0 5,0 13 7 N - 10 -
26.05.2020 03:00:00 16,0 7,0 8 4 N - 10 -
26.05.2020 02:00:00 15,4 9,0 13 7 N 1024,7 10 -
26.05.2020 01:00:00 16,0 11,0 11 6 N - 10 -
26.05.2020 00:00:00 17,0 11,0 8 4 NNE - 10 -
25.05.2020 23:00:00 16,2 11,6 9 5 N 1023,6 10 0,0
25.05.2020 22:00:00 18,0 12,0 5 3 NNE - 10 -
25.05.2020 21:00:00 22,0 11,0 5 3 - - 10 -
25.05.2020 20:00:00 23,9 9,8 13 7 SO 1022,3 10 -
25.05.2020 19:00:00 25,0 8,0 13 7 SSO - 10 -
25.05.2020 18:00:00 25,0 9,0 13 7 SO - 10 -
25.05.2020 17:00:00 24,9 8,5 13 7 OSO 1023,4 10 0,0
25.05.2020 16:00:00 25,0 9,0 15 8 OSO - 10 -
25.05.2020 15:00:00 24,0 9,0 11 6 - - 10 -
25.05.2020 14:00:00 23,3 8,6 11 6 S 1025,5 10 -
25.05.2020 13:00:00 22,0 7,0 11 6 SO - 10 -
25.05.2020 12:00:00 22,0 6,0 5 3 - - 10 -
25.05.2020 11:00:00 21,0 6,8 11 6 SSO 1027,3 10 0,0
25.05.2020 10:00:00 21,0 9,0 8 4 SSE - 10 -
25.05.2020 09:00:00 20,0 11,0 4 2 - - 10 -
25.05.2020 08:00:00 17,4 11,0 8 4 N 1027,6 10 -
25.05.2020 07:00:00 16,0 11,0 8 4 NNE - 10 -
25.05.2020 06:00:00 13,0 10,0 9 5 N - 10 -
25.05.2020 05:00:00 13,2 10,7 11 6 N 1027,5 10 0,0
25.05.2020 04:00:00 14,0 11,0 9 5 N - 10 -
25.05.2020 03:00:00 14,0 11,0 9 5 N - 10 -
25.05.2020 02:00:00 14,6 11,3 5 3 N 1027,3 10 -
25.05.2020 01:00:00 16,0 12,0 9 5 N - 10 -
25.05.2020 00:00:00 16,0 12,0 5 3 NE - 10 -
24.05.2020 23:00:00 16,3 12,7 8 4 NNE 1026,5 10 0,0

tt = Temperatura
td = dewpoint
ff = velocità del vento
dd = direzione del vento
ppp = reduced air pressure
vv = visibility
rr = precipitazioni

Stazioni seguenti

WeatherPro
AMSI
MeteoEarth